Meteo

Ora Tempo Temperatura Umidità Vento Precipitazioni
15:00 cielo sereno 12.7° 54% 0.79 km/h 0 mm
18:00 poche nuvole 11.6° 56% 1.12 km/h 0 mm
21:00 nubi sparse 9.5° 60% 2.17 km/h 0 mm
Ora Tempo Temperatura Umidità Vento Precipitazioni
00:00 cielo coperto 7.4° 62% 3 km/h 0 mm
03:00 cielo coperto 8.1° 55% 4.58 km/h 0 mm
06:00 pioggia leggera 9.2° 79% 4.5 km/h 1.14 mm
09:00 pioggia moderata 12.4° 87% 9.81 km/h 8.89 mm
12:00 pioggia moderata 15.2° 82% 12.93 km/h 3.31 mm
15:00 pioggia leggera 15.2° 84% 13.68 km/h 1.07 mm
18:00 pioggia leggera 13.5° 69% 12.23 km/h 1.44 mm
21:00 pioggia leggera 12.0° 64% 8.49 km/h 2.30 mm
Ora Tempo Temperatura Umidità Vento Precipitazioni
00:00 pioggia leggera 11.2° 61% 5 km/h 1.59 mm
03:00 pioggia leggera 10.5° 67% 2.1 km/h 1.00 mm
06:00 pioggia moderata 8.9° 76% 1.45 km/h 4.02 mm
09:00 pioggia leggera 11.0° 59% 0.98 km/h 1.96 mm
12:00 pioggia leggera 10.7° 60% 3.62 km/h 2.05 mm
15:00 pioggia leggera 9.1° 76% 6.1 km/h 0.53 mm
18:00 pioggia leggera 8.9° 69% 3.32 km/h 0.14 mm
21:00 pioggia leggera 8.0° 73% 3.95 km/h 0.32 mm
Ora Tempo Temperatura Umidità Vento Precipitazioni
00:00 nubi sparse 6.6° 79% 2.61 km/h 0 mm
03:00 cielo sereno 5.9° 80% 2.62 km/h 0 mm
06:00 nubi sparse 5.7° 78% 2.48 km/h 0 mm
09:00 cielo coperto 7.2° 72% 2.97 km/h 0 mm
12:00 cielo coperto 9.5° 67% 4.68 km/h 0 mm
15:00 pioggia leggera 10.3° 70% 4.08 km/h 0.46 mm
18:00 pioggia leggera 9.3° 80% 2.67 km/h 0.26 mm
21:00 pioggia leggera 7.9° 86% 3.69 km/h 1.23 mm
Ora Tempo Temperatura Umidità Vento Precipitazioni
00:00 pioggia leggera 7.0° 88% 4.26 km/h 0.49 mm
03:00 pioggia leggera 6.6° 87% 6.98 km/h 0.36 mm
06:00 pioggia leggera 6.1° 92% 11.64 km/h 0.26 mm
09:00 pioggia leggera 7.8° 75% 8.54 km/h 0.11 mm
12:00 cielo coperto 9.4° 65% 9.83 km/h 0 mm
15:00 cielo coperto 8.2° 67% 8.1 km/h 0 mm
18:00 cielo coperto 8.7° 61% 9.69 km/h 0 mm
21:00 cielo coperto 7.9° 57% 7.62 km/h 0 mm
Ora Tempo Temperatura Umidità Vento Precipitazioni
00:00 cielo coperto 7.6° 58% 5.97 km/h 0 mm
03:00 nubi sparse 7.4° 55% 4.89 km/h 0 mm
06:00 cielo coperto 6.5° 59% 4.15 km/h 0 mm
09:00 cielo sereno 7.9° 55% 3.51 km/h 0 mm
12:00 poche nuvole 10.5° 48% 2.98 km/h 0 mm
Martedì 07 Dicembre
Temp. max: 12.7°
Temp. min: 7.9°
Ora Tempo Temperatura Umidità Vento Precipitazioni
15:00 cielo sereno 12.7° 54% 0.79 km/h 0 mm
18:00 poche nuvole 11.6° 56% 1.12 km/h 0 mm
21:00 nubi sparse 9.5° 60% 2.17 km/h 0 mm
Mercoledì 08 Dicembre
Temp. max: 15.2°
Temp. min: 7.4°
Ora Tempo Temperatura Umidità Vento Precipitazioni
00:00 cielo coperto 7.4° 62% 3 km/h 0 mm
03:00 cielo coperto 8.1° 55% 4.58 km/h 0 mm
06:00 pioggia leggera 9.2° 79% 4.5 km/h 1.14 mm
09:00 pioggia moderata 12.4° 87% 9.81 km/h 8.89 mm
12:00 pioggia moderata 15.2° 82% 12.93 km/h 3.31 mm
15:00 pioggia leggera 15.2° 84% 13.68 km/h 1.07 mm
18:00 pioggia leggera 13.5° 69% 12.23 km/h 1.44 mm
21:00 pioggia leggera 12.0° 64% 8.49 km/h 2.30 mm
Giovedì 09 Dicembre
Temp. max: 11.2°
Temp. min: 8.0°
Ora Tempo Temperatura Umidità Vento Precipitazioni
00:00 pioggia leggera 11.2° 61% 5 km/h 1.59 mm
03:00 pioggia leggera 10.5° 67% 2.1 km/h 1.00 mm
06:00 pioggia moderata 8.9° 76% 1.45 km/h 4.02 mm
09:00 pioggia leggera 11.0° 59% 0.98 km/h 1.96 mm
12:00 pioggia leggera 10.7° 60% 3.62 km/h 2.05 mm
15:00 pioggia leggera 9.1° 76% 6.1 km/h 0.53 mm
18:00 pioggia leggera 8.9° 69% 3.32 km/h 0.14 mm
21:00 pioggia leggera 8.0° 73% 3.95 km/h 0.32 mm
Venerdì 10 Dicembre
Temp. max: 10.3°
Temp. min: 5.7°
Ora Tempo Temperatura Umidità Vento Precipitazioni
00:00 nubi sparse 6.6° 79% 2.61 km/h 0 mm
03:00 cielo sereno 5.9° 80% 2.62 km/h 0 mm
06:00 nubi sparse 5.7° 78% 2.48 km/h 0 mm
09:00 cielo coperto 7.2° 72% 2.97 km/h 0 mm
12:00 cielo coperto 9.5° 67% 4.68 km/h 0 mm
15:00 pioggia leggera 10.3° 70% 4.08 km/h 0.46 mm
18:00 pioggia leggera 9.3° 80% 2.67 km/h 0.26 mm
21:00 pioggia leggera 7.9° 86% 3.69 km/h 1.23 mm
Sabato 11 Dicembre
Temp. max: 9.4°
Temp. min: 6.1°
Ora Tempo Temperatura Umidità Vento Precipitazioni
00:00 pioggia leggera 7.0° 88% 4.26 km/h 0.49 mm
03:00 pioggia leggera 6.6° 87% 6.98 km/h 0.36 mm
06:00 pioggia leggera 6.1° 92% 11.64 km/h 0.26 mm
09:00 pioggia leggera 7.8° 75% 8.54 km/h 0.11 mm
12:00 cielo coperto 9.4° 65% 9.83 km/h 0 mm
15:00 cielo coperto 8.2° 67% 8.1 km/h 0 mm
18:00 cielo coperto 8.7° 61% 9.69 km/h 0 mm
21:00 cielo coperto 7.9° 57% 7.62 km/h 0 mm
Domenica 12 Dicembre
Temp. max: 10.5°
Temp. min: 6.5°
Ora Tempo Temperatura Umidità Vento Precipitazioni
00:00 cielo coperto 7.6° 58% 5.97 km/h 0 mm
03:00 nubi sparse 7.4° 55% 4.89 km/h 0 mm
06:00 cielo coperto 6.5° 59% 4.15 km/h 0 mm
09:00 cielo sereno 7.9° 55% 3.51 km/h 0 mm
12:00 poche nuvole 10.5° 48% 2.98 km/h 0 mm

Live Cam

VUOI RICEVERE PIÚ INFORMAZIONI SUI NOSTRI SERVIZI?

Usa la form di contatti sul sito o contattaci telefonicamente